Вернуться в каталог

SPOT 3

АктивенНаукаSSO
NORAD 22823·PAYLOAD·🇫🇷 France

Запущен Sep 26, 1993 с Guiana Space Centre

Loading…

Ближайшие Пролёты (ближайшие 24 часа)

TLE

СвежийSource: Space-Track

Эпоха: Sep 14, 2026, 13:55 UTC

1 22823U 93061A   26257.58019224  .00000060  00000-0  49004-4 0  9996
2 22823  98.8484 321.6629 0016406 350.0251  10.0597 14.20111356707260

Отслеживайте SPOT 3 в реальном времени с AllMySat

Download on the App Store